#timestamp,LO_Frequency,Hit,StdDev 
1561636815.2,286047002.6,N
1561636835.1,286047002.7,N
1561636836.0,286047002.7,N
1561636855.8,286047000.7,N
1561636875.7,286047000.5,N
1561636895.5,286046998.7,N
1561636915.3,286046997.6,N
1561636935.2,286046996.6,N
1561636955.0,286046998.2,N
1561636955.9,286046998.2,N
1561636975.7,286047002.4,N
1561636995.6,286047001.4,N
1561637015.4,286047003.6,N
1561637035.3,286047003.6,N
1561637055.1,286047004.0,N
1561637056.0,286047004.0,N
1561637075.8,286047003.8,N
1561637095.7,286047005.8,N
1561637115.5,286047006.6,N
1561637135.3,286047006.1,N
1561637155.2,286047009.1,Y
1561637175.0,286047007.6,P
1561637175.9,286047007.6,N
1561637195.8,286047005.9,N
1561637215.6,286047004.0,N
1561637235.4,286047004.2,N
1561637255.3,286047001.8,N
1561637275.1,286047000.6,N
1561637295.9,286046999.6,N
1561637315.7,286046998.9,N
1561637335.5,286046999.1,N
1561637355.4,286047000.3,N
1561637375.2,286047001.0,N
1561637395.0,286047001.5,N
1561637395.9,286047001.5,N
1561637415.8,286047000.2,N
1561637435.6,286047001.2,N
1561637455.5,286046998.2,N
1561637475.3,286046999.5,N
1561637495.1,286046997.3,N
1561637515.9,286046998.8,N
1561637535.7,286046999.1,N
1561637555.5,286046996.9,N
1561637575.4,286046999.0,N
1561637595.2,286046996.7,N
1561637615.1,286046997.2,N
1561637616.0,286046997.2,N
1561637635.8,286046999.4,N
1561637655.6,286046997.2,N
1561637675.5,286046997.1,N
1561637695.3,286046996.0,N
1561637715.1,286046995.2,N
1561637735.9,286046993.4,N
1561637755.7,286046993.4,N
1561637775.6,286046996.4,N
1561637795.4,286046995.7,N
1561637815.2,286046995.1,N
1561637835.1,286046995.1,N
1561637836.0,286046995.1,N
1561637855.8,286046995.0,N
1561637875.6,286046997.7,N
1561637895.5,286046995.9,N
1561637915.3,286046997.9,N
1561637935.2,286046995.8,N
1561637955.9,286046997.1,N
1561637975.7,286046998.9,N
1561637995.6,286046998.1,N
1561638015.4,286047004.2,N
1561638035.2,286047004.4,N
1561638055.1,286047004.4,N
1561638056.0,286047004.4,N
1561638075.8,286047002.9,N
1561638095.7,286047003.9,N
1561638115.5,286047001.7,N
1561638135.3,286047003.0,N
1561638155.2,286047004.2,N
1561638175.0,286047003.2,N
1561638175.9,286047003.2,N
1561638195.8,286047004.0,N
1561638215.6,286047003.8,N
1561638235.4,286047004.0,N
1561638255.3,286047002.3,N
1561638275.1,286047002.5,N
1561638295.8,286047001.4,N
1561638315.7,286047001.4,N
1561638335.5,286047001.7,N
1561638355.4,286047002.4,N
1561638375.2,286047000.6,N
1561638395.0,286046998.1,N
1561638395.9,286046998.1,N
1561638415.8,286046996.7,N
1561638435.6,286046997.5,N
1561638455.4,286046995.9,N
1561638475.3,286046996.1,N
1561638495.1,286046996.3,N
1561638515.9,286046996.2,N
1561638535.7,286046996.0,N
1561638555.5,286046994.3,N
1561638575.4,286046993.0,N
1561638595.2,286046992.3,N
1561638615.0,286046991.6,N
1561638615.9,286046991.6,N
1561638635.8,286046989.6,N
1561638655.6,286046988.1,N
1561638675.5,286046988.1,N
1561638695.3,286046988.2,N
1561638715.1,286046987.7,N
1561638735.9,286046987.8,N
1561638755.7,286046987.0,N
1561638775.5,286046987.2,N
1561638795.4,286046990.0,N
1561638815.2,286046987.4,N
1561638835.1,286046988.3,N
1561638836.0,286046988.3,N
1561638855.8,286046988.2,N
1561638875.6,286046985.5,Y
1561638895.5,286046994.6,P
1561638915.3,286046994.6,P
1561638935.2,286046996.0,P
1561638955.9,286046995.3,Y
1561638975.7,286047003.9,P
1561638995.6,286047002.0,N
1561639015.4,286047002.5,N
1561639035.2,286047001.8,N
1561639055.1,286047003.9,N
1561639056.0,286047003.9,N
1561639075.8,286047004.4,N
1561639095.7,286047002.0,N
1561639115.5,286047001.7,N
1561639135.3,286047001.9,N
1561639155.2,286047001.6,N
1561639175.0,286047002.0,N
1561639175.9,286047002.0,N
1561639195.7,286047000.6,N
1561639215.6,286046999.0,N
1561639235.4,286047000.5,N
1561639255.3,286046998.7,N
1561639275.1,286046999.6,N
1561639295.8,286046997.7,N
1561639315.7,286046997.4,N
1561639335.5,286046995.4,N
1561639355.3,286046996.9,N
1561639375.2,286046996.9,N
1561639395.0,286046999.1,N
1561639395.9,286046999.1,N
1561639415.8,286046998.3,N
1561639435.6,286046998.5,N
1561639455.4,286046998.6,N
1561639475.3,286047001.1,N
1561639495.1,286047000.0,N
1561639515.8,286047001.3,N
1561639535.7,286047003.4,N
1561639555.5,286047003.9,N
1561639575.4,286047002.4,N
1561639595.2,286047002.8,N
1561639615.0,286046999.7,N
1561639615.9,286046999.7,N
1561639635.8,286047002.3,N
1561639655.6,286047003.7,N
1561639675.4,286047004.4,N
1561639695.3,286047003.9,N
1561639715.1,286047002.4,N
1561639735.9,286047002.3,N
1561639755.7,286047004.2,N
1561639775.5,286046999.7,N
1561639795.4,286047000.4,N
1561639815.2,286047002.4,N
1561639835.0,286047000.1,N
1561639835.9,286047000.1,N
1561639855.8,286046998.3,N
1561639875.6,286046999.1,N
1561639895.5,286046998.9,N
1561639915.3,286046998.9,N
1561639935.1,286047000.7,N
1561639955.9,286047002.4,N
1561639975.7,286047002.5,N
1561639995.5,286047003.9,N
1561640015.4,286047003.3,N
1561640035.2,286047005.3,N
1561640055.1,286047005.9,Y
1561640056.0,286047005.9,P
1561640075.8,286047004.2,N
1561640095.6,286047002.0,N
1561640115.5,286047004.4,N
1561640135.3,286047004.2,N
1561640155.2,286047003.8,N
1561640175.9,286047004.2,Y
1561640195.7,286046997.7,P
1561640215.6,286046997.2,N
1561640235.4,286046998.0,N
1561640255.2,286046994.9,N
1561640275.1,286046997.2,N
1561640276.0,286046997.2,N
1561640295.8,286046995.2,N
1561640315.7,286046996.0,N
1561640335.5,286046992.9,N
1561640355.3,286046992.9,N
1561640375.2,286046993.7,N
1561640395.0,286046993.7,N
1561640395.9,286046993.7,N
